STARLINK-1353 (45537 NORAD) Tracking and Keplerian Element Data

This shows tracking and keplerian element data for the satellite.

Feedback or suggestion? Click here.




ElementValue
Catalog45537
NameSTARLINK-1353
Epoch Orbit628
Epoch Day149.41668981
Epoch Year2020
RAAN225.8402
Inclination52.9972
Eccentricity0.0002323
Argument of Perigee345.9644
Mean Anonmoly271.2761
Mean Motion15.34534169
Decay Rate0.03900507
L11 45537U 20025G 20149.41668981 .03900507 00000-0 10183+0 0 9998
L22 45537 52.9972 225.8402 0002323 345.9644 271.2761 15.34534169 6281

Live tracking and technical data element details for STARLINK-1353 (NORAD 45537). STARLINK-1353 can be tracked NOW for your location showing map with azimuth and elevation plus other details from your city location.

Track the satellite on the map from your city or location and see movement details for azimuth, elevation, latitude, longitude, range, height, and movement on the map or in text.







IsCatalogInMostPopularTable: catalog: 45537, numindb: 7
Update: records affected: 1



GetName: 45537 STARLINK-1353

Hit Count: updated at: Sat, 30 May 2020 13:52:24 GMT